Weather History for Louisville, KY

Change the Weather History Date:

Friday, October 4, 2013

  Actual Average Record
Temperature  
Mean Temperature 77 °F 64 °F  
Max Temperature 86 °F 74 °F 92 °F (1959)
Min Temperature 67 °F 53 °F 35 °F (1987)
Degree Days  
Heating Degree Days 0 4  
Month to date heating degree days 0 15  
Since 1 July heating degree days 6 45  
Cooling Degree Days 12 3  
Month to date cooling degree days 40 12  
Year to date cooling degree days 1615 1579  
Growing Degree Days 26 (Base 50)    
Moisture  
Dew Point 67 °F    
Average Humidity 74    
Maximum Humidity 93    
Minimum Humidity 55    
Precipitation  
Precipitation 0.42 in 0.11 in 1.83 in (1949)
Month to date precipitation 0.46 0.42  
Year to date precipitation 34.97 34.69  
Snow  
Snow 0.00 in 0.00 in 0.00 in ()
Month to date snowfall 0.0 0.0  
Since 1 July snowfall 0.0 0.0  
Since 1 September snowfall 0.0 0.0  
Snow Depth 0.00 in    
Sea Level Pressure  
Sea Level Pressure 30.05 in    
Wind  
Wind Speed 6 mph (SSE)    
Max Wind Speed 36 mph    
Max Gust Speed 43 mph    
Visibility 8 miles    
Events Rain    
T = Trace of Precipitation, MM = Missing Value Source: NWS Daily Summary

Daily Weather History Graph

Daily Weather History Graph

Search for Another Location

Airport:

Trip Planner

Search our weather history database for the weather conditions in past years. The results will help you decide how hot, cold, wet, or windy it might be!

Date:

Astronomy

Oct. 04, 2013 Rise Set
Actual Time 7:41 AM EDT 7:20 PM EDT
Civil Twilight 7:15 AM EDT 7:47 PM EDT
Nautical Twilight 6:44 AM EDT 8:17 PM EDT
Astronomical Twilight 6:13 AM EDT 8:48 PM EDT
Moon 7:16 AM EDT (10/4) 7:03 PM EDT (10/4)
Length of Visible Light 12h 31m
Length of Day
11h 39m
Waning Crescent, 0% of the Moon is Illuminated
Oct 4
Waning Crescent
Oct 4
New
Oct 11
First Quarter
Oct 18
Full
Oct 26
Last Quarter

Hourly Weather History & Observations

Time (EDT) Temp. Heat Index Dew Point Humidity Pressure Visibility Wind Dir Wind Speed Gust Speed Precip Events Conditions
12:56 AM 73.0 °F - 66.0 °F 79% 30.03 in 10.0 mi SSE 8.1 mph - N/A   Partly Cloudy
1:56 AM 71.1 °F - 66.0 °F 84% 30.03 in 10.0 mi SSE 5.8 mph - N/A   Partly Cloudy
2:56 AM 70.0 °F - 64.9 °F 84% 30.03 in 10.0 mi SSE 6.9 mph - N/A   Partly Cloudy
3:56 AM 70.0 °F - 64.9 °F 84% 30.03 in 10.0 mi SSE 4.6 mph - N/A   Mostly Cloudy
4:56 AM 70.0 °F - 64.9 °F 84% 30.04 in 10.0 mi SSE 5.8 mph - N/A   Mostly Cloudy
5:56 AM 68.0 °F - 64.0 °F 87% 30.05 in 9.0 mi ESE 5.8 mph - N/A   Clear
6:56 AM 66.9 °F - 64.0 °F 90% 30.06 in 9.0 mi SE 4.6 mph - N/A   Mostly Cloudy
7:56 AM 66.9 °F - 64.0 °F 90% 30.08 in 7.0 mi SE 5.8 mph - N/A   Mostly Cloudy
8:56 AM 70.0 °F - 64.9 °F 84% 30.09 in 8.0 mi SE 4.6 mph - N/A   Mostly Cloudy
9:56 AM 73.9 °F - 66.0 °F 76% 30.09 in 10.0 mi South 6.9 mph - N/A   Scattered Clouds
10:56 AM 78.1 °F - 66.0 °F 66% 30.09 in 10.0 mi SW 6.9 mph - N/A   Partly Cloudy
11:56 AM 80.1 °F 82.3 °F 66.9 °F 64% 30.08 in 10.0 mi Variable 5.8 mph - N/A   Scattered Clouds
12:56 PM 81.0 °F 83.3 °F 66.9 °F 62% 30.08 in 10.0 mi WSW 6.9 mph - N/A   Scattered Clouds
1:56 PM 84.9 °F 87.6 °F 66.9 °F 55% 30.06 in 10.0 mi SSW 9.2 mph 16.1 mph N/A   Scattered Clouds
2:56 PM 84.0 °F 86.5 °F 66.9 °F 56% 30.04 in 10.0 mi SSE 10.4 mph - N/A   Mostly Cloudy
3:56 PM 84.9 °F 87.6 °F 66.9 °F 55% 30.02 in 10.0 mi South 10.4 mph - N/A   Mostly Cloudy
4:56 PM 84.9 °F 87.6 °F 66.9 °F 55% 30.01 in 10.0 mi SSE 9.2 mph - N/A   Mostly Cloudy
5:56 PM 82.9 °F 85.0 °F 66.0 °F 56% 30.01 in 10.0 mi South 6.9 mph - N/A   Mostly Cloudy
6:56 PM 82.0 °F 84.5 °F 66.9 °F 60% 30.02 in 10.0 mi South 8.1 mph - N/A   Mostly Cloudy
7:25 PM 73.4 °F - 69.8 °F 88% 30.06 in 1.8 mi West 24.2 mph 42.6 mph 0.00 in Rain Heavy Rain
7:30 PM 71.6 °F - 69.8 °F 94% 30.06 in 0.8 mi West 11.5 mph 36.8 mph 0.12 in Rain Heavy Rain
7:37 PM 71.6 °F - 69.8 °F 94% 30.06 in 0.8 mi Calm Calm - 0.39 in Rain Heavy Rain
7:41 PM 71.6 °F - 69.8 °F 94% 30.06 in 2.0 mi SE 5.8 mph - 0.40 in Rain Rain
7:45 PM 71.6 °F - 69.8 °F 94% 30.06 in 3.0 mi ESE 10.4 mph - 0.41 in Rain Rain
7:56 PM 72.0 °F - 70.0 °F 93% 30.05 in 5.0 mi ESE 9.2 mph - 0.42 in Rain Light Rain
8:56 PM 73.0 °F - 70.0 °F 90% 30.05 in 9.0 mi SSE 5.8 mph - 0.00 in   Overcast
9:56 PM 73.0 °F - 70.0 °F 90% 30.06 in 9.0 mi SSE 3.5 mph - N/A   Mostly Cloudy
10:56 PM 73.0 °F - 70.0 °F 90% 30.05 in 8.0 mi Calm Calm - N/A   Scattered Clouds
11:56 PM 73.0 °F - 69.1 °F 87% 30.05 in 9.0 mi South 3.5 mph - N/A   Mostly Cloudy